Private Wetterstation Sandau
Wetterdaten: Donnerstag, 16.08.2012
Datum Zeit Temp. A. Feuchte A. Luftdruck Regen Wind Richtung Richtung Taupunkt Windchill
16.08.2012 00:01 15,9 C 72 % 1015,3 hPa 0,0 l/m 0,0 km/h (0 Bft) O-SO 112 10,9 C 15,9 C
16.08.2012 00:06 15,8 C 73 % 1015,3 hPa 0,0 l/m 2,9 km/h (1 Bft) SO 135 11,0 C 15,8 C
16.08.2012 00:11 15,8 C 74 % 1015,3 hPa 0,0 l/m 2,9 km/h (1 Bft) O-SO 112 11,2 C 15,8 C
16.08.2012 00:16 15,8 C 75 % 1015,4 hPa 0,0 l/m 2,5 km/h (1 Bft) SO 135 11,4 C 15,8 C
16.08.2012 00:21 15,7 C 76 % 1015,4 hPa 0,0 l/m 2,9 km/h (1 Bft) O 90 11,5 C 15,7 C
16.08.2012 00:26 15,7 C 76 % 1015,5 hPa 0,0 l/m 3,6 km/h (1 Bft) O-SO 112 11,5 C 15,7 C
16.08.2012 00:31 15,7 C 76 % 1015,5 hPa 0,0 l/m 4,0 km/h (1 Bft) O-SO 112 11,5 C 15,7 C
16.08.2012 00:36 15,7 C 76 % 1015,5 hPa 0,0 l/m 7,9 km/h (2 Bft) SO 135 11,5 C 15,7 C
16.08.2012 00:41 15,6 C 77 % 1015,4 hPa 0,0 l/m 2,5 km/h (1 Bft) O-NO 67 11,6 C 15,6 C
16.08.2012 00:46 15,6 C 77 % 1015,5 hPa 0,0 l/m 2,5 km/h (1 Bft) O 90 11,6 C 15,6 C
16.08.2012 00:51 15,6 C 78 % 1015,6 hPa 0,0 l/m 2,5 km/h (1 Bft) O-SO 112 11,8 C 15,6 C
16.08.2012 00:56 15,6 C 78 % 1015,5 hPa 0,0 l/m 1,1 km/h (1 Bft) SO 135 11,8 C 15,6 C
16.08.2012 01:01 15,6 C 78 % 1015,4 hPa 0,0 l/m 3,6 km/h (1 Bft) O-SO 112 11,8 C 15,6 C
16.08.2012 01:06 15,5 C 78 % 1015,4 hPa 0,0 l/m 4,3 km/h (1 Bft) S-SO 157 11,7 C 15,5 C
16.08.2012 01:11 15,4 C 78 % 1015,4 hPa 0,0 l/m 3,2 km/h (1 Bft) SO 135 11,6 C 15,4 C
16.08.2012 01:16 15,3 C 78 % 1015,3 hPa 0,0 l/m 3,2 km/h (1 Bft) O-SO 112 11,5 C 15,3 C
16.08.2012 01:21 15,2 C 79 % 1015,4 hPa 0,0 l/m 2,2 km/h (1 Bft) S-SO 157 11,6 C 15,2 C
16.08.2012 01:26 15,2 C 79 % 1015,4 hPa 0,0 l/m 3,2 km/h (1 Bft) O-SO 112 11,6 C 15,2 C
16.08.2012 01:31 15,2 C 80 % 1015,4 hPa 0,0 l/m 4,0 km/h (1 Bft) O-SO 112 11,8 C 15,2 C
16.08.2012 01:36 15,1 C 81 % 1015,3 hPa 0,0 l/m 7,2 km/h (2 Bft) O-SO 112 11,9 C 15,1 C
16.08.2012 01:41 15,2 C 82 % 1015,3 hPa 0,0 l/m 5,4 km/h (1 Bft) O 90 12,1 C 15,2 C
16.08.2012 01:46 15,1 C 82 % 1015,3 hPa 0,0 l/m 4,0 km/h (1 Bft) O-SO 112 12,0 C 15,1 C
16.08.2012 01:51 15,0 C 82 % 1015,3 hPa 0,0 l/m 5,0 km/h (1 Bft) O-SO 112 12,0 C 15,0 C
16.08.2012 01:56 14,9 C 82 % 1015,4 hPa 0,0 l/m 5,4 km/h (1 Bft) O-SO 112 11,9 C 14,9 C
16.08.2012 02:01 14,9 C 83 % 1015,4 hPa 0,0 l/m 0,0 km/h (0 Bft) O-NO 67 12,0 C 14,9 C
16.08.2012 02:06 14,9 C 83 % 1015,3 hPa 0,0 l/m 5,4 km/h (1 Bft) O-SO 112 12,0 C 14,9 C
16.08.2012 02:11 14,9 C 83 % 1015,4 hPa 0,0 l/m 4,7 km/h (1 Bft) O 90 12,0 C 14,9 C
16.08.2012 02:16 14,9 C 84 % 1015,4 hPa 0,0 l/m 5,8 km/h (2 Bft) O-NO 67 12,2 C 14,9 C
16.08.2012 02:21 14,9 C 84 % 1015,3 hPa 0,0 l/m 13,0 km/h (3 Bft) O 90 12,2 C 14,9 C
16.08.2012 02:26 14,9 C 85 % 1015,1 hPa 0,0 l/m 5,4 km/h (1 Bft) SO 135 12,4 C 14,9 C
16.08.2012 02:31 14,9 C 85 % 1015,1 hPa 0,0 l/m 3,6 km/h (1 Bft) O-SO 112 12,4 C 14,9 C
16.08.2012 02:36 14,9 C 85 % 1015,1 hPa 0,0 l/m 2,2 km/h (1 Bft) O-NO 67 12,4 C 14,9 C
16.08.2012 02:41 14,9 C 85 % 1015,0 hPa 0,0 l/m 5,8 km/h (2 Bft) O-SO 112 12,4 C 14,9 C
16.08.2012 02:46 14,9 C 85 % 1014,9 hPa 0,0 l/m 3,2 km/h (1 Bft) O-NO 67 12,4 C 14,9 C
16.08.2012 02:51 14,9 C 86 % 1015,0 hPa 0,0 l/m 5,0 km/h (1 Bft) O 90 12,6 C 14,9 C
16.08.2012 02:56 14,9 C 86 % 1015,0 hPa 0,0 l/m 4,0 km/h (1 Bft) SO 135 12,6 C 14,9 C
16.08.2012 03:01 14,8 C 86 % 1015,2 hPa 0,0 l/m 5,4 km/h (1 Bft) SO 135 12,5 C 14,8 C
16.08.2012 03:06 14,8 C 86 % 1015,1 hPa 0,0 l/m 4,7 km/h (1 Bft) SO 135 12,5 C 14,8 C
16.08.2012 03:11 14,8 C 86 % 1015,2 hPa 0,0 l/m 0,0 km/h (0 Bft) O-SO 112 12,5 C 14,8 C
16.08.2012 03:16 14,8 C 86 % 1015,4 hPa 0,0 l/m 3,2 km/h (1 Bft) O-SO 112 12,5 C 14,8 C
16.08.2012 03:21 14,9 C 87 % 1015,3 hPa 0,0 l/m 0,0 km/h (0 Bft) SO 135 12,8 C 14,9 C
16.08.2012 03:26 14,8 C 86 % 1015,2 hPa 0,0 l/m 6,1 km/h (2 Bft) O-SO 112 12,5 C 14,8 C
16.08.2012 03:31 14,7 C 86 % 1015,0 hPa 0,0 l/m 6,1 km/h (2 Bft) O-NO 67 12,4 C 14,7 C
16.08.2012 03:36 14,6 C 87 % 1014,9 hPa 0,0 l/m 4,3 km/h (1 Bft) O 90 12,5 C 14,6 C
16.08.2012 03:41 14,6 C 87 % 1014,9 hPa 0,0 l/m 11,2 km/h (2 Bft) O-SO 112 12,5 C 14,6 C
16.08.2012 03:46 14,5 C 87 % 1014,9 hPa 0,0 l/m 3,6 km/h (1 Bft) O 90 12,4 C 14,5 C
16.08.2012 03:51 14,5 C 87 % 1015,0 hPa 0,0 l/m 8,6 km/h (2 Bft) O-NO 67 12,4 C 14,5 C
16.08.2012 03:56 14,5 C 88 % 1015,0 hPa 0,0 l/m 6,5 km/h (2 Bft) O-SO 112 12,5 C 14,5 C
16.08.2012 04:01 14,5 C 88 % 1015,1 hPa 0,0 l/m 5,0 km/h (1 Bft) O-SO 112 12,5 C 14,5 C
16.08.2012 04:06 14,6 C 88 % 1015,4 hPa 0,0 l/m 4,0 km/h (1 Bft) O-SO 112 12,6 C 14,6 C
16.08.2012 04:11 14,7 C 88 % 1015,3 hPa 0,0 l/m 4,0 km/h (1 Bft) O 90 12,7 C 14,7 C
16.08.2012 04:16 14,8 C 88 % 1015,2 hPa 0,0 l/m 11,2 km/h (2 Bft) SO 135 12,8 C 14,8 C
16.08.2012 04:21 14,7 C 88 % 1015,1 hPa 0,0 l/m 5,8 km/h (2 Bft) O-SO 112 12,7 C 14,7 C
16.08.2012 04:26 14,6 C 88 % 1015,1 hPa 0,0 l/m 10,4 km/h (2 Bft) O-SO 112 12,6 C 14,6 C
16.08.2012 04:31 14,6 C 89 % 1015,1 hPa 0,0 l/m 10,1 km/h (2 Bft) SO 135 12,8 C 14,6 C
16.08.2012 04:36 14,5 C 89 % 1015,1 hPa 0,0 l/m 8,6 km/h (2 Bft) O-SO 112 12,7 C 14,5 C
16.08.2012 04:41 14,4 C 89 % 1015,0 hPa 0,0 l/m 3,6 km/h (1 Bft) O-SO 112 12,6 C 14,4 C
16.08.2012 04:46 14,4 C 89 % 1014,9 hPa 0,0 l/m 4,7 km/h (1 Bft) O-NO 67 12,6 C 14,4 C
16.08.2012 04:51 14,3 C 89 % 1014,9 hPa 0,0 l/m 4,0 km/h (1 Bft) O-NO 67 12,5 C 14,3 C
16.08.2012 04:56 14,3 C 89 % 1014,9 hPa 0,0 l/m 4,0 km/h (1 Bft) O 90 12,5 C 14,3 C
16.08.2012 05:01 14,3 C 89 % 1015,0 hPa 0,0 l/m 4,0 km/h (1 Bft) O-SO 112 12,5 C 14,3 C
16.08.2012 05:06 14,3 C 89 % 1015,0 hPa 0,0 l/m 3,6 km/h (1 Bft) SO 135 12,5 C 14,3 C
16.08.2012 05:11 14,2 C 89 % 1015,0 hPa 0,0 l/m 2,9 km/h (1 Bft) O-SO 112 12,4 C 14,2 C
16.08.2012 05:16 14,2 C 89 % 1015,0 hPa 0,0 l/m 3,2 km/h (1 Bft) O-NO 67 12,4 C 14,2 C
16.08.2012 05:21 14,2 C 89 % 1014,9 hPa 0,0 l/m 4,0 km/h (1 Bft) O-NO 67 12,4 C 14,2 C
16.08.2012 05:26 14,1 C 89 % 1014,9 hPa 0,0 l/m 2,5 km/h (1 Bft) O-NO 67 12,3 C 14,1 C
16.08.2012 05:31 14,1 C 89 % 1015,0 hPa 0,0 l/m 5,4 km/h (1 Bft) O-NO 67 12,3 C 14,1 C
16.08.2012 05:36 14,0 C 89 % 1015,2 hPa 0,0 l/m 2,5 km/h (1 Bft) O-NO 67 12,2 C 14,0 C
16.08.2012 05:41 13,9 C 89 % 1015,1 hPa 0,0 l/m 9,0 km/h (2 Bft) O-SO 112 12,1 C 13,9 C
16.08.2012 05:46 13,9 C 89 % 1015,3 hPa 0,0 l/m 5,0 km/h (1 Bft) O 90 12,1 C 13,9 C
16.08.2012 05:51 13,9 C 89 % 1015,5 hPa 0,0 l/m 3,2 km/h (1 Bft) O 90 12,1 C 13,9 C
16.08.2012 05:56 13,9 C 90 % 1015,4 hPa 0,0 l/m 2,5 km/h (1 Bft) O-SO 112 12,3 C 13,9 C
16.08.2012 06:01 13,9 C 90 % 1015,4 hPa 0,0 l/m 6,1 km/h (2 Bft) SO 135 12,3 C 13,9 C
16.08.2012 06:06 13,9 C 90 % 1015,4 hPa 0,0 l/m 4,0 km/h (1 Bft) O 90 12,3 C 13,9 C
16.08.2012 06:11 13,9 C 90 % 1015,3 hPa 0,0 l/m 4,0 km/h (1 Bft) O-NO 67 12,3 C 13,9 C
16.08.2012 06:16 13,8 C 90 % 1015,3 hPa 0,0 l/m 4,3 km/h (1 Bft) O 90 12,2 C 13,8 C
16.08.2012 06:21 13,8 C 90 % 1015,4 hPa 0,0 l/m 4,7 km/h (1 Bft) O 90 12,2 C 13,8 C
16.08.2012 06:26 13,8 C 90 % 1015,5 hPa 0,0 l/m 4,3 km/h (1 Bft) O-SO 112 12,2 C 13,8 C
16.08.2012 06:31 13,8 C 90 % 1015,6 hPa 0,0 l/m 3,2 km/h (1 Bft) O-SO 112 12,2 C 13,8 C
16.08.2012 06:36 13,9 C 90 % 1015,7 hPa 0,0 l/m 4,7 km/h (1 Bft) O-SO 112 12,3 C 13,9 C
16.08.2012 06:41 14,1 C 90 % 1015,8 hPa 0,0 l/m 2,5 km/h (1 Bft) SO 135 12,5 C 14,1 C
16.08.2012 06:46 14,3 C 90 % 1016,0 hPa 0,0 l/m 3,6 km/h (1 Bft) O-SO 112 12,7 C 14,3 C
16.08.2012 06:51 14,9 C 90 % 1016,0 hPa 0,0 l/m 2,5 km/h (1 Bft) O-SO 112 13,3 C 14,9 C
16.08.2012 06:56 15,5 C 89 % 1016,0 hPa 0,0 l/m 6,5 km/h (2 Bft) O-SO 112 13,7 C 15,5 C
16.08.2012 07:01 16,0 C 87 % 1016,0 hPa 0,0 l/m 4,7 km/h (1 Bft) O 90 13,8 C 16,0 C
16.08.2012 07:06 16,4 C 85 % 1015,9 hPa 0,0 l/m 3,6 km/h (1 Bft) O-NO 67 13,9 C 16,4 C
16.08.2012 07:11 16,6 C 84 % 1016,0 hPa 0,0 l/m 5,8 km/h (2 Bft) SO 135 13,9 C 16,6 C
16.08.2012 07:16 16,9 C 83 % 1016,0 hPa 0,0 l/m 8,3 km/h (2 Bft) O-SO 112 14,0 C 16,9 C
16.08.2012 07:21 16,9 C 82 % 1015,9 hPa 0,0 l/m 7,6 km/h (2 Bft) O-SO 112 13,8 C 16,9 C
16.08.2012 07:26 16,9 C 82 % 1015,9 hPa 0,0 l/m 4,0 km/h (1 Bft) SO 135 13,8 C 16,9 C
16.08.2012 07:31 16,9 C 82 % 1015,9 hPa 0,0 l/m 3,2 km/h (1 Bft) O-SO 112 13,8 C 16,9 C
16.08.2012 07:36 16,7 C 82 % 1015,9 hPa 0,0 l/m 8,3 km/h (2 Bft) SO 135 13,6 C 16,7 C
16.08.2012 07:41 16,6 C 83 % 1016,0 hPa 0,0 l/m 5,4 km/h (1 Bft) O-SO 112 13,7 C 16,6 C
16.08.2012 07:46 16,4 C 83 % 1015,9 hPa 0,0 l/m 5,0 km/h (1 Bft) SO 135 13,5 C 16,4 C
16.08.2012 07:51 16,4 C 83 % 1015,8 hPa 0,0 l/m 2,2 km/h (1 Bft) O-NO 67 13,5 C 16,4 C
16.08.2012 07:56 16,5 C 83 % 1015,7 hPa 0,0 l/m 13,0 km/h (3 Bft) O-SO 112 13,6 C 16,5 C
16.08.2012 08:01 16,6 C 83 % 1015,8 hPa 0,0 l/m 7,9 km/h (2 Bft) SO 135 13,7 C 16,6 C
16.08.2012 08:06 16,6 C 83 % 1015,7 hPa 0,0 l/m 7,6 km/h (2 Bft) O-SO 112 13,7 C 16,6 C
16.08.2012 08:11 16,6 C 83 % 1015,9 hPa 0,0 l/m 4,7 km/h (1 Bft) SO 135 13,7 C 16,6 C
16.08.2012 08:16 16,7 C 83 % 1016,0 hPa 0,0 l/m 2,5 km/h (1 Bft) SO 135 13,8 C 16,7 C
16.08.2012 08:21 16,8 C 83 % 1016,1 hPa 0,0 l/m 1,8 km/h (1 Bft) O-SO 112 13,9 C 16,8 C
16.08.2012 08:26 16,9 C 83 % 1016,2 hPa 0,0 l/m 6,1 km/h (2 Bft) S-SO 157 14,0 C 16,9 C
16.08.2012 08:31 17,2 C 82 % 1016,3 hPa 0,0 l/m 5,0 km/h (1 Bft) SO 135 14,1 C 17,2 C
16.08.2012 08:36 17,3 C 82 % 1016,3 hPa 0,0 l/m 5,0 km/h (1 Bft) O-SO 112 14,2 C 17,3 C
16.08.2012 08:41 17,4 C 82 % 1016,3 hPa 0,0 l/m 1,8 km/h (1 Bft) O-SO 112 14,3 C 17,4 C
16.08.2012 08:46 17,9 C 81 % 1016,4 hPa 0,0 l/m 6,5 km/h (2 Bft) SO 135 14,6 C 17,9 C
16.08.2012 08:51 18,3 C 80 % 1016,3 hPa 0,0 l/m 6,1 km/h (2 Bft) SO 135 14,8 C 18,3 C
16.08.2012 08:56 18,7 C 79 % 1016,4 hPa 0,0 l/m 6,5 km/h (2 Bft) O-SO 112 15,0 C 18,7 C
16.08.2012 09:01 19,2 C 78 % 1016,5 hPa 0,0 l/m 3,6 km/h (1 Bft) S-SO 157 15,3 C 19,2 C
16.08.2012 09:06 19,5 C 76 % 1016,5 hPa 0,0 l/m 8,3 km/h (2 Bft) S-SO 157 15,2 C 19,5 C
16.08.2012 09:11 19,5 C 75 % 1016,5 hPa 0,0 l/m 4,7 km/h (1 Bft) SO 135 14,9 C 19,5 C
16.08.2012 09:16 19,6 C 75 % 1016,7 hPa 0,0 l/m 4,7 km/h (1 Bft) N-NW 337 15,0 C 19,6 C
16.08.2012 09:21 19,6 C 75 % 1016,6 hPa 0,0 l/m 2,5 km/h (1 Bft) S-SO 157 15,0 C 19,6 C
16.08.2012 09:26 19,8 C 74 % 1016,7 hPa 0,0 l/m 6,1 km/h (2 Bft) S-SO 157 15,0 C 19,8 C
16.08.2012 09:31 19,9 C 74 % 1016,6 hPa 0,0 l/m 3,6 km/h (1 Bft) O-SO 112 15,1 C 19,9 C
16.08.2012 09:36 19,9 C 74 % 1016,6 hPa 0,0 l/m 2,5 km/h (1 Bft) NO 45 15,1 C 19,9 C
16.08.2012 09:41 20,1 C 74 % 1016,7 hPa 0,0 l/m 2,9 km/h (1 Bft) S 180 15,3 C 20,1 C
16.08.2012 09:46 20,2 C 73 % 1016,7 hPa 0,0 l/m 3,2 km/h (1 Bft) S 180 15,2 C 20,2 C
16.08.2012 09:51 20,4 C 72 % 1016,7 hPa 0,0 l/m 2,5 km/h (1 Bft) S-SO 157 15,2 C 20,4 C
16.08.2012 09:56 20,7 C 71 % 1016,7 hPa 0,0 l/m 3,6 km/h (1 Bft) SO 135 15,2 C 20,7 C
16.08.2012 10:01 20,8 C 71 % 1016,8 hPa 0,0 l/m 3,6 km/h (1 Bft) S 180 15,3 C 20,8 C
16.08.2012 10:06 20,9 C 70 % 1016,7 hPa 0,0 l/m 7,2 km/h (2 Bft) S-SW 202 15,2 C 20,9 C
16.08.2012 10:11 20,9 C 70 % 1016,7 hPa 0,0 l/m 1,4 km/h (1 Bft) S-SO 157 15,2 C 20,9 C
16.08.2012 10:16 21,1 C 70 % 1016,7 hPa 0,0 l/m 4,7 km/h (1 Bft) S-SO 157 15,4 C 21,1 C
16.08.2012 10:21 21,2 C 70 % 1016,8 hPa 0,0 l/m 3,2 km/h (1 Bft) S-SW 202 15,5 C 21,2 C
16.08.2012 10:26 21,3 C 70 % 1016,9 hPa 0,0 l/m 4,7 km/h (1 Bft) SO 135 15,6 C 21,3 C
16.08.2012 10:31 21,2 C 70 % 1017,0 hPa 0,0 l/m 0,0 km/h (0 Bft) S-SO 157 15,5 C 21,2 C
16.08.2012 10:36 21,1 C 70 % 1017,1 hPa 0,0 l/m 1,4 km/h (1 Bft) SO 135 15,4 C 21,1 C
16.08.2012 10:41 21,2 C 69 % 1017,2 hPa 0,0 l/m 4,0 km/h (1 Bft) SW 225 15,3 C 21,2 C
16.08.2012 10:46 21,1 C 69 % 1017,0 hPa 0,0 l/m 0,0 km/h (0 Bft) S-SO 157 15,2 C 21,1 C
16.08.2012 10:51 21,1 C 69 % 1017,0 hPa 0,0 l/m 0,0 km/h (0 Bft) S-SO 157 15,2 C 21,1 C
16.08.2012 10:56 21,1 C 69 % 1017,1 hPa 0,0 l/m 2,2 km/h (1 Bft) S-SW 202 15,2 C 21,1 C
16.08.2012 11:01 21,1 C 69 % 1017,1 hPa 0,0 l/m 3,6 km/h (1 Bft) SO 135 15,2 C 21,1 C
16.08.2012 11:06 21,1 C 69 % 1017,1 hPa 0,0 l/m 0,0 km/h (0 Bft) O-SO 112 15,2 C 21,1 C
16.08.2012 11:11 21,1 C 69 % 1017,3 hPa 0,0 l/m 2,2 km/h (1 Bft) SO 135 15,2 C 21,1 C
16.08.2012 11:16 21,1 C 69 % 1017,3 hPa 0,0 l/m 0,0 km/h (0 Bft) SO 135 15,2 C 21,1 C
16.08.2012 11:21 21,1 C 70 % 1017,3 hPa 0,0 l/m 2,9 km/h (1 Bft) SW 225 15,4 C 21,1 C
16.08.2012 11:26 21,0 C 70 % 1017,4 hPa 0,0 l/m 3,2 km/h (1 Bft) S 180 15,3 C 21,0 C
16.08.2012 11:31 20,9 C 70 % 1017,4 hPa 0,0 l/m 5,0 km/h (1 Bft) S-SW 202 15,2 C 20,9 C
16.08.2012 11:36 20,7 C 69 % 1017,4 hPa 0,0 l/m 3,6 km/h (1 Bft) W-NW 292 14,8 C 20,7 C
16.08.2012 11:41 20,5 C 70 % 1017,4 hPa 0,0 l/m 6,1 km/h (2 Bft) SW 225 14,8 C 20,5 C
16.08.2012 11:46 20,3 C 69 % 1017,5 hPa 0,0 l/m 5,0 km/h (1 Bft) W-NW 292 14,4 C 20,3 C
16.08.2012 11:51 20,1 C 69 % 1017,5 hPa 0,0 l/m 4,3 km/h (1 Bft) W-SW 247 14,2 C 20,1 C
16.08.2012 11:56 19,9 C 70 % 1017,5 hPa 0,0 l/m 5,8 km/h (2 Bft) W-SW 247 14,3 C 19,9 C
16.08.2012 12:01 19,9 C 72 % 1017,6 hPa 0,0 l/m 9,4 km/h (2 Bft) SW 225 14,7 C 19,9 C
16.08.2012 12:06 19,8 C 72 % 1017,6 hPa 0,0 l/m 5,8 km/h (2 Bft) W-SW 247 14,6 C 19,8 C
16.08.2012 12:11 19,5 C 72 % 1017,8 hPa 0,0 l/m 6,8 km/h (2 Bft) W 270 14,3 C 19,5 C
16.08.2012 12:16 19,3 C 73 % 1017,9 hPa 0,0 l/m 9,4 km/h (2 Bft) W-SW 247 14,3 C 19,3 C
16.08.2012 12:21 19,1 C 73 % 1017,8 hPa 0,0 l/m 1,8 km/h (1 Bft) W-SW 247 14,1 C 19,1 C
16.08.2012 12:26 18,9 C 74 % 1017,9 hPa 0,0 l/m 5,8 km/h (2 Bft) W-SW 247 14,2 C 18,9 C
16.08.2012 12:31 18,8 C 76 % 1017,9 hPa 0,0 l/m 8,3 km/h (2 Bft) W 270 14,5 C 18,8 C
16.08.2012 12:36 18,7 C 77 % 1018,0 hPa 0,0 l/m 4,7 km/h (1 Bft) W-NW 292 14,6 C 18,7 C
16.08.2012 12:41 18,6 C 78 % 1018,0 hPa 0,0 l/m 6,1 km/h (2 Bft) W 270 14,7 C 18,6 C
16.08.2012 12:46 18,4 C 79 % 1018,2 hPa 0,0 l/m 4,7 km/h (1 Bft) W-SW 247 14,7 C 18,4 C
16.08.2012 12:51 18,3 C 79 % 1018,2 hPa 0,0 l/m 7,2 km/h (2 Bft) W-SW 247 14,6 C 18,3 C
16.08.2012 12:56 18,2 C 79 % 1018,2 hPa 0,0 l/m 11,5 km/h (2 Bft) W 270 14,5 C 18,2 C
16.08.2012 13:01 18,1 C 80 % 1018,2 hPa 0,0 l/m 2,9 km/h (1 Bft) W-NW 292 14,6 C 18,1 C
16.08.2012 13:06 18,1 C 80 % 1018,2 hPa 0,0 l/m 5,0 km/h (1 Bft) W-SW 247 14,6 C 18,1 C
16.08.2012 13:11 18,1 C 80 % 1018,2 hPa 0,0 l/m 4,0 km/h (1 Bft) W 270 14,6 C 18,1 C
16.08.2012 13:16 18,1 C 80 % 1018,5 hPa 0,0 l/m 3,2 km/h (1 Bft) W-NW 292 14,6 C 18,1 C
16.08.2012 13:21 18,1 C 80 % 1018,4 hPa 0,0 l/m 4,7 km/h (1 Bft) W-SW 247 14,6 C 18,1 C
16.08.2012 13:26 18,2 C 80 % 1018,4 hPa 0,0 l/m 1,1 km/h (1 Bft) W 270 14,7 C 18,2 C
16.08.2012 13:31 18,3 C 81 % 1018,4 hPa 0,0 l/m 0,0 km/h (0 Bft) W-SW 247 15,0 C 18,3 C
16.08.2012 13:36 18,3 C 80 % 1018,3 hPa 0,0 l/m 0,0 km/h (0 Bft) W 270 14,8 C 18,3 C
16.08.2012 13:41 18,2 C 80 % 1018,4 hPa 0,0 l/m 2,2 km/h (1 Bft) W-SW 247 14,7 C 18,2 C
16.08.2012 13:46 18,2 C 81 % 1018,5 hPa 0,0 l/m 3,2 km/h (1 Bft) SW 225 14,9 C 18,2 C
16.08.2012 13:51 18,1 C 81 % 1018,6 hPa 0,5 l/m 1,4 km/h (1 Bft) W-SW 247 14,8 C 18,1 C
16.08.2012 13:56 18,1 C 81 % 1018,6 hPa 0,0 l/m 0,0 km/h (0 Bft) W 270 14,8 C 18,1 C
16.08.2012 14:01 18,0 C 82 % 1018,5 hPa 0,5 l/m 6,5 km/h (2 Bft) W-SW 247 14,9 C 18,0 C
16.08.2012 14:06 17,9 C 83 % 1018,6 hPa 0,0 l/m 5,0 km/h (1 Bft) W-SW 247 15,0 C 17,9 C
16.08.2012 14:11 17,9 C 83 % 1018,7 hPa 0,0 l/m 4,0 km/h (1 Bft) W-SW 247 15,0 C 17,9 C
16.08.2012 14:16 18,0 C 84 % 1018,8 hPa 0,0 l/m 0,0 km/h (0 Bft) NW 315 15,3 C 18,0 C
16.08.2012 14:21 18,0 C 84 % 1018,6 hPa 0,5 l/m 6,5 km/h (2 Bft) S-SW 202 15,3 C 18,0 C
16.08.2012 14:26 18,1 C 85 % 1018,8 hPa 0,0 l/m 6,1 km/h (2 Bft) W-SW 247 15,5 C 18,1 C
16.08.2012 14:31 17,9 C 85 % 1018,7 hPa 0,0 l/m 2,9 km/h (1 Bft) W 270 15,3 C 17,9 C
16.08.2012 14:36 17,9 C 85 % 1018,7 hPa 0,0 l/m 2,9 km/h (1 Bft) W 270 15,3 C 17,9 C
16.08.2012 14:41 17,8 C 85 % 1018,7 hPa 0,0 l/m 4,0 km/h (1 Bft) SW 225 15,2 C 17,8 C
16.08.2012 14:46 17,8 C 85 % 1018,7 hPa 0,0 l/m 4,7 km/h (1 Bft) SW 225 15,2 C 17,8 C
16.08.2012 14:51 17,8 C 86 % 1018,7 hPa 0,5 l/m 3,6 km/h (1 Bft) SW 225 15,4 C 17,8 C
16.08.2012 14:56 17,8 C 86 % 1018,7 hPa 0,0 l/m 9,7 km/h (2 Bft) W-SW 247 15,4 C 17,8 C
16.08.2012 15:01 17,8 C 86 % 1018,7 hPa 0,0 l/m 0,0 km/h (0 Bft) W-SW 247 15,4 C 17,8 C
16.08.2012 15:06 17,8 C 86 % 1018,8 hPa 0,0 l/m 9,4 km/h (2 Bft) W-SW 247 15,4 C 17,8 C
16.08.2012 15:11 17,8 C 86 % 1018,9 hPa 0,0 l/m 3,6 km/h (1 Bft) W 270 15,4 C 17,8 C
16.08.2012 15:16 17,8 C 86 % 1018,9 hPa 0,0 l/m 0,0 km/h (0 Bft) NW 315 15,4 C 17,8 C
16.08.2012 15:21 17,8 C 86 % 1018,9 hPa 0,0 l/m 4,7 km/h (1 Bft) W 270 15,4 C 17,8 C
16.08.2012 15:26 17,8 C 86 % 1019,0 hPa 0,0 l/m 5,8 km/h (2 Bft) W-SW 247 15,4 C 17,8 C
16.08.2012 15:31 17,8 C 86 % 1018,7 hPa 0,0 l/m 0,0 km/h (0 Bft) W-SW 247 15,4 C 17,8 C
16.08.2012 15:36 17,8 C 86 % 1018,8 hPa 0,0 l/m 2,2 km/h (1 Bft) W-NW 292 15,4 C 17,8 C
16.08.2012 15:41 17,8 C 86 % 1018,9 hPa 0,0 l/m 2,2 km/h (1 Bft) W-NW 292 15,4 C 17,8 C
16.08.2012 15:46 17,8 C 86 % 1018,8 hPa 0,0 l/m 6,1 km/h (2 Bft) W 270 15,4 C 17,8 C
16.08.2012 15:51 17,8 C 86 % 1018,8 hPa 0,0 l/m 3,2 km/h (1 Bft) W-NW 292 15,4 C 17,8 C
16.08.2012 15:56 17,8 C 86 % 1018,8 hPa 0,0 l/m 6,1 km/h (2 Bft) W 270 15,4 C 17,8 C
16.08.2012 16:01 17,8 C 86 % 1018,9 hPa 0,0 l/m 5,8 km/h (2 Bft) W-SW 247 15,4 C 17,8 C
16.08.2012 16:06 17,8 C 85 % 1018,9 hPa 0,0 l/m 2,2 km/h (1 Bft) W-NW 292 15,2 C 17,8 C
16.08.2012 16:11 17,8 C 86 % 1019,0 hPa 0,0 l/m 6,1 km/h (2 Bft) N-NW 337 15,4 C 17,8 C
16.08.2012 16:16 17,8 C 86 % 1019,2 hPa 0,0 l/m 4,0 km/h (1 Bft) W 270 15,4 C 17,8 C
16.08.2012 16:21 17,7 C 86 % 1019,2 hPa 0,0 l/m 5,8 km/h (2 Bft) W 270 15,3 C 17,7 C
16.08.2012 16:26 17,6 C 86 % 1019,3 hPa 0,0 l/m 2,9 km/h (1 Bft) NW 315 15,2 C 17,6 C
16.08.2012 16:31 17,6 C 86 % 1019,3 hPa 0,0 l/m 4,7 km/h (1 Bft) W-NW 292 15,2 C 17,6 C
16.08.2012 16:36 17,6 C 86 % 1019,3 hPa 0,0 l/m 5,8 km/h (2 Bft) NW 315 15,2 C 17,6 C
16.08.2012 16:41 17,5 C 86 % 1019,4 hPa 0,0 l/m 2,5 km/h (1 Bft) W 270 15,1 C 17,5 C
16.08.2012 16:46 17,5 C 86 % 1019,3 hPa 0,0 l/m 0,0 km/h (0 Bft) W 270 15,1 C 17,5 C
16.08.2012 16:51 17,5 C 86 % 1019,3 hPa 0,0 l/m 0,0 km/h (0 Bft) W-NW 292 15,1 C 17,5 C
16.08.2012 16:56 17,6 C 86 % 1019,3 hPa 0,0 l/m 1,8 km/h (1 Bft) W-NW 292 15,2 C 17,6 C
16.08.2012 17:01 17,6 C 86 % 1019,3 hPa 0,0 l/m 0,0 km/h (0 Bft) W-NW 292 15,2 C 17,6 C
16.08.2012 17:06 17,8 C 87 % 1019,2 hPa 0,0 l/m 6,5 km/h (2 Bft) W-NW 292 15,6 C 17,8 C
16.08.2012 17:11 17,9 C 87 % 1019,3 hPa 0,0 l/m 2,2 km/h (1 Bft) W-NW 292 15,7 C 17,9 C
16.08.2012 17:16 18,2 C 87 % 1019,3 hPa 0,0 l/m 5,0 km/h (1 Bft) NW 315 16,0 C 18,2 C
16.08.2012 17:21 18,3 C 87 % 1019,3 hPa 0,0 l/m 4,0 km/h (1 Bft) W 270 16,1 C 18,3 C
16.08.2012 17:26 18,4 C 86 % 1019,3 hPa 0,0 l/m 2,2 km/h (1 Bft) N-NW 337 16,0 C 18,4 C
16.08.2012 17:31 18,4 C 86 % 1019,2 hPa 0,0 l/m 4,0 km/h (1 Bft) W-NW 292 16,0 C 18,4 C
16.08.2012 17:36 18,5 C 86 % 1019,2 hPa 0,0 l/m 4,7 km/h (1 Bft) W-NW 292 16,1 C 18,5 C
16.08.2012 17:41 18,5 C 86 % 1019,3 hPa 0,0 l/m 0,0 km/h (0 Bft) W 270 16,1 C 18,5 C
16.08.2012 17:46 18,5 C 86 % 1019,3 hPa 0,0 l/m 3,6 km/h (1 Bft) W 270 16,1 C 18,5 C
16.08.2012 17:51 18,5 C 86 % 1019,3 hPa 0,0 l/m 4,7 km/h (1 Bft) W-NW 292 16,1 C 18,5 C
16.08.2012 17:56 18,4 C 85 % 1019,4 hPa 0,0 l/m 8,6 km/h (2 Bft) W-NW 292 15,8 C 18,4 C
16.08.2012 18:01 18,5 C 85 % 1019,5 hPa 0,0 l/m 10,8 km/h (2 Bft) W-NW 292 15,9 C 18,5 C
16.08.2012 18:06 18,5 C 85 % 1019,5 hPa 0,0 l/m 4,3 km/h (1 Bft) N 360 15,9 C 18,5 C
16.08.2012 18:11 18,4 C 85 % 1019,5 hPa 0,0 l/m 1,1 km/h (1 Bft) W 270 15,8 C 18,4 C
16.08.2012 18:16 18,4 C 85 % 1019,4 hPa 0,0 l/m 3,2 km/h (1 Bft) NW 315 15,8 C 18,4 C
16.08.2012 18:21 18,3 C 86 % 1019,5 hPa 0,0 l/m 4,7 km/h (1 Bft) W 270 15,9 C 18,3 C
16.08.2012 18:26 18,3 C 86 % 1019,4 hPa 0,0 l/m 5,4 km/h (1 Bft) W-NW 292 15,9 C 18,3 C
16.08.2012 18:31 18,4 C 86 % 1019,4 hPa 0,0 l/m 2,9 km/h (1 Bft) NW 315 16,0 C 18,4 C
16.08.2012 18:36 18,6 C 86 % 1019,5 hPa 0,0 l/m 0,0 km/h (0 Bft) NW 315 16,2 C 18,6 C
16.08.2012 18:41 18,7 C 85 % 1019,5 hPa 0,0 l/m 5,4 km/h (1 Bft) N-NO 22 16,1 C 18,7 C
16.08.2012 18:46 18,8 C 85 % 1019,6 hPa 0,0 l/m 1,8 km/h (1 Bft) N-NW 337 16,2 C 18,8 C
16.08.2012 18:51 18,9 C 85 % 1019,4 hPa 0,0 l/m 11,9 km/h (2 Bft) N-NO 22 16,3 C 18,9 C
16.08.2012 18:56 19,1 C 84 % 1019,4 hPa 0,0 l/m 4,7 km/h (1 Bft) N-NO 22 16,3 C 19,1 C
16.08.2012 19:01 19,2 C 83 % 1019,6 hPa 0,0 l/m 5,8 km/h (2 Bft) N 360 16,2 C 19,2 C
16.08.2012 19:06 19,3 C 82 % 1019,5 hPa 0,0 l/m 2,5 km/h (1 Bft) N-NO 22 16,1 C 19,3 C
16.08.2012 19:11 19,4 C 81 % 1019,5 hPa 0,0 l/m 4,0 km/h (1 Bft) NO 45 16,1 C 19,4 C
16.08.2012 19:16 19,3 C 82 % 1019,5 hPa 0,0 l/m 5,0 km/h (1 Bft) N-NW 337 16,1 C 19,3 C
16.08.2012 19:21 19,3 C 82 % 1019,4 hPa 0,0 l/m 2,9 km/h (1 Bft) N-NO 22 16,1 C 19,3 C
16.08.2012 19:26 19,2 C 82 % 1019,5 hPa 0,0 l/m 2,2 km/h (1 Bft) N-NO 22 16,0 C 19,2 C
16.08.2012 19:31 19,2 C 82 % 1019,6 hPa 0,0 l/m 0,0 km/h (0 Bft) N-NO 22 16,0 C 19,2 C
16.08.2012 19:36 19,1 C 82 % 1019,7 hPa 0,0 l/m 1,1 km/h (1 Bft) N-NO 22 16,0 C 19,1 C
16.08.2012 19:41 19,0 C 82 % 1019,7 hPa 0,0 l/m 0,0 km/h (0 Bft) NO 45 15,9 C 19,0 C
16.08.2012 19:46 18,9 C 83 % 1019,9 hPa 0,0 l/m 0,0 km/h (0 Bft) N-NO 22 15,9 C 18,9 C
16.08.2012 19:51 18,8 C 83 % 1019,8 hPa 0,0 l/m 0,0 km/h (0 Bft) N-NO 22 15,8 C 18,8 C
16.08.2012 19:56 18,6 C 83 % 1019,8 hPa 0,0 l/m 0,0 km/h (0 Bft) N-NO 22 15,7 C 18,6 C
16.08.2012 20:01 18,5 C 83 % 1019,9 hPa 0,0 l/m 0,0 km/h (0 Bft) N-NO 22 15,6 C 18,5 C
16.08.2012 20:06 18,4 C 83 % 1020,1 hPa 0,0 l/m 0,0 km/h (0 Bft) N-NO 22 15,5 C 18,4 C
16.08.2012 20:11 18,3 C 84 % 1020,1 hPa 0,0 l/m 0,0 km/h (0 Bft) N-NO 22 15,5 C 18,3 C
16.08.2012 20:16 18,2 C 84 % 1020,1 hPa 0,0 l/m 0,0 km/h (0 Bft) N-NO 22 15,4 C 18,2 C
16.08.2012 20:21 18,1 C 84 % 1020,1 hPa 0,0 l/m 0,0 km/h (0 Bft) N-NO 22 15,4 C 18,1 C
16.08.2012 20:26 17,9 C 84 % 1020,3 hPa 0,0 l/m 0,0 km/h (0 Bft) N-NO 22 15,2 C 17,9 C
16.08.2012 20:31 17,9 C 85 % 1020,3 hPa 0,0 l/m 0,0 km/h (0 Bft) N-NO 22 15,3 C 17,9 C
16.08.2012 20:36 17,8 C 84 % 1020,4 hPa 0,0 l/m 0,0 km/h (0 Bft) N-NO 22 15,1 C 17,8 C
16.08.2012 20:41 17,6 C 84 % 1020,2 hPa 0,0 l/m 0,0 km/h (0 Bft) N-NO 22 14,9 C 17,6 C
16.08.2012 20:46 17,4 C 85 % 1020,2 hPa 0,0 l/m 0,0 km/h (0 Bft) N-NO 22 14,8 C 17,4 C
16.08.2012 20:51 17,3 C 85 % 1020,3 hPa 0,0 l/m 0,0 km/h (0 Bft) N-NO 22 14,8 C 17,3 C
16.08.2012 20:56 17,2 C 85 % 1020,3 hPa 0,0 l/m 0,0 km/h (0 Bft) N-NO 22 14,7 C 17,2 C
16.08.2012 21:01 17,0 C 85 % 1020,4 hPa 0,0 l/m 0,0 km/h (0 Bft) N-NO 22 14,5 C 17,0 C
16.08.2012 21:06 16,9 C 85 % 1020,4 hPa 0,0 l/m 0,0 km/h (0 Bft) N-NO 22 14,4 C 16,9 C
16.08.2012 21:11 16,7 C 85 % 1020,4 hPa 0,0 l/m 0,0 km/h (0 Bft) N-NO 22 14,2 C 16,7 C
16.08.2012 21:16 16,6 C 86 % 1020,4 hPa 0,0 l/m 0,0 km/h (0 Bft) N-NO 22 14,2 C 16,6 C
16.08.2012 21:21 16,4 C 86 % 1020,5 hPa 0,0 l/m 0,0 km/h (0 Bft) N-NO 22 14,1 C 16,4 C
16.08.2012 21:26 16,3 C 86 % 1020,5 hPa 0,0 l/m 0,0 km/h (0 Bft) N-NO 22 14,0 C 16,3 C
16.08.2012 21:31 16,1 C 86 % 1020,5 hPa 0,0 l/m 0,0 km/h (0 Bft) N-NO 22 13,8 C 16,1 C
16.08.2012 21:36 15,9 C 86 % 1020,5 hPa 0,0 l/m 0,0 km/h (0 Bft) N-NO 22 13,6 C 15,9 C
16.08.2012 21:41 15,8 C 86 % 1020,5 hPa 0,0 l/m 0,0 km/h (0 Bft) N-NO 22 13,5 C 15,8 C
16.08.2012 21:46 15,6 C 86 % 1020,6 hPa 0,0 l/m 0,0 km/h (0 Bft) N-NO 22 13,3 C 15,6 C
16.08.2012 21:51 15,5 C 87 % 1020,7 hPa 0,0 l/m 0,0 km/h (0 Bft) N-NO 22 13,3 C 15,5 C
16.08.2012 21:56 15,4 C 87 % 1020,6 hPa 0,0 l/m 0,0 km/h (0 Bft) N-NO 22 13,2 C 15,4 C
16.08.2012 22:01 15,3 C 87 % 1020,7 hPa 0,0 l/m 0,0 km/h (0 Bft) N-NO 22 13,1 C 15,3 C
16.08.2012 22:06 15,1 C 87 % 1020,8 hPa 0,0 l/m 0,0 km/h (0 Bft) N-NO 22 13,0 C 15,1 C
16.08.2012 22:11 14,9 C 87 % 1020,7 hPa 0,0 l/m 0,0 km/h (0 Bft) N-NO 22 12,8 C 14,9 C
16.08.2012 22:16 14,9 C 87 % 1020,7 hPa 0,0 l/m 0,0 km/h (0 Bft) N-NO 22 12,8 C 14,9 C
16.08.2012 22:21 14,9 C 87 % 1020,7 hPa 0,0 l/m 0,0 km/h (0 Bft) N-NO 22 12,8 C 14,9 C
16.08.2012 22:26 14,8 C 87 % 1020,5 hPa 0,0 l/m 0,0 km/h (0 Bft) N-NO 22 12,7 C 14,8 C
16.08.2012 22:31 14,7 C 87 % 1020,8 hPa 0,0 l/m 0,0 km/h (0 Bft) N-NO 22 12,6 C 14,7 C
16.08.2012 22:36 14,6 C 88 % 1020,7 hPa 0,0 l/m 0,0 km/h (0 Bft) N-NO 22 12,6 C 14,6 C
16.08.2012 22:41 14,5 C 88 % 1020,8 hPa 0,0 l/m 0,0 km/h (0 Bft) N-NO 22 12,5 C 14,5 C
16.08.2012 22:46 14,5 C 88 % 1020,8 hPa 0,0 l/m 0,0 km/h (0 Bft) N-NO 22 12,5 C 14,5 C
16.08.2012 22:51 14,4 C 88 % 1020,7 hPa 0,0 l/m 0,0 km/h (0 Bft) N-NO 22 12,4 C 14,4 C
16.08.2012 22:56 14,4 C 88 % 1020,7 hPa 0,0 l/m 0,0 km/h (0 Bft) N-NO 22 12,4 C 14,4 C
16.08.2012 23:01 14,4 C 88 % 1021,0 hPa 0,0 l/m 0,0 km/h (0 Bft) N-NO 22 12,4 C 14,4 C
16.08.2012 23:06 14,4 C 88 % 1020,8 hPa 0,0 l/m 0,0 km/h (0 Bft) N-NO 22 12,4 C 14,4 C
16.08.2012 23:11 14,3 C 89 % 1020,8 hPa 0,0 l/m 0,0 km/h (0 Bft) N-NO 22 12,5 C 14,3 C
16.08.2012 23:16 14,3 C 89 % 1021,0 hPa 0,0 l/m 0,0 km/h (0 Bft) N-NO 22 12,5 C 14,3 C
16.08.2012 23:21 14,1 C 89 % 1020,9 hPa 0,0 l/m 0,0 km/h (0 Bft) N-NO 22 12,3 C 14,1 C
16.08.2012 23:26 13,9 C 89 % 1021,1 hPa 0,0 l/m 0,0 km/h (0 Bft) N-NO 22 12,1 C 13,9 C
16.08.2012 23:31 13,9 C 88 % 1021,0 hPa 0,0 l/m 0,0 km/h (0 Bft) N-NO 22 11,9 C 13,9 C
16.08.2012 23:36 13,8 C 88 % 1021,0 hPa 0,0 l/m 0,0 km/h (0 Bft) N-NO 22 11,8 C 13,8 C
16.08.2012 23:41 13,8 C 89 % 1021,1 hPa 0,0 l/m 0,0 km/h (0 Bft) N-NO 22 12,0 C 13,8 C
16.08.2012 23:46 13,8 C 89 % 1021,0 hPa 0,0 l/m 0,0 km/h (0 Bft) N-NO 22 12,0 C 13,8 C
16.08.2012 23:51 13,6 C 89 % 1021,2 hPa 0,0 l/m 0,0 km/h (0 Bft) N-NO 22 11,8 C 13,6 C
16.08.2012 23:56 13,7 C 89 % 1021,2 hPa 0,0 l/m 0,0 km/h (0 Bft) N-NO 22 11,9 C 13,7 C
_ Min-Zeit 23:51 10:41 02:46 - 00:01 - - 00:01 23:51
Minimum _ 13,6 C 69 % 1014,9 hPa - 0,0 km/h (0 Bft) - - 10,9 C 13,6 C
_ Max-Zeit 10:26 05:56 23:51 13:51 02:21 - - 18:56 10:26
Maximum _ 21,3 C 90 % 1021,2 hPa 0,5 l/m 13,0 km/h
O (3 Bft)
- - 16,3 C 21,3 C
Durchschnitt _ 17,0 C 83 % 1017,7 hPa #2,1 l/m 3,5 km/h (1 Bft) O-SO - 14,0 C 17,0 C
(c) by David Heller